| time (UTC) | temp F | wind direction | speed MPH | gust MPH | rain 1hr in | rain 24hr in | rain mn in | humidity % | barometer mb |
| 20260902102155 | 59 | 122 | 6.0 | 9.0 | 0.00 | 0.00 | 0.00 | 80 | 1009.0 |
| 20260902101650 | 59 | 151 | 5.0 | 7.0 | 0.00 | 0.00 | 0.00 | 80 | 1009.0 |
| 20260902101150 | 59 | 135 | 3.0 | 6.0 | 0.00 | 0.00 | 0.00 | 79 | 1009.0 |
| 20260902100644 | 59 | 106 | 3.0 | 7.0 | 0.00 | 0.00 | 0.00 | 78 | 1009.0 |
| 20260902100139 | 59 | 133 | 5.0 | 7.0 | 0.00 | 0.00 | 0.00 | 79 | 1008.6 |
| 20260902095638 | 58 | 113 | 2.0 | 6.0 | 0.00 | 0.00 | 0.00 | 80 | 1009.0 |
| 20260902095138 | 58 | 83 | 4.0 | 6.0 | 0.00 | 0.00 | 0.00 | 81 | 1009.0 |
| 20260902094633 | 57 | 134 | 2.0 | 3.0 | 0.00 | 0.00 | 0.00 | 82 | 1009.0 |
| 20260902094129 | 57 | 135 | 0.0 | 0.0 | 0.00 | 0.00 | 0.00 | 82 | 1009.0 |
| 20260902093623 | 57 | 117 | 2.0 | 3.0 | 0.00 | 0.00 | 0.00 | 82 | 1009.3 |
| 20260902093112 | 57 | 106 | 1.0 | 3.0 | 0.00 | 0.00 | 0.00 | 82 | 1009.3 |
| 20260902092607 | 57 | 152 | 2.0 | 4.0 | 0.00 | 0.00 | 0.00 | 83 | 1009.0 |
| 20260902092102 | 57 | 126 | 2.0 | 4.0 | 0.00 | 0.00 | 0.00 | 84 | 1009.3 |
| 20260902091557 | 57 | 135 | 1.0 | 3.0 | 0.00 | 0.00 | 0.00 | 84 | 1009.3 |
| 20260902091053 | 58 | 124 | 2.0 | 4.0 | 0.00 | 0.00 | 0.00 | 84 | 1009.3 |
| 20260902090549 | 58 | 157 | 3.0 | 3.0 | 0.00 | 0.00 | 0.00 | 84 | 1009.6 |
| 20260902090048 | 58 | 174 | 1.0 | 2.0 | 0.00 | 0.00 | 0.00 | 83 | 1009.6 |
| 20260902085548 | 58 | 176 | 2.0 | 7.0 | 0.00 | 0.00 | 0.00 | 83 | 1009.6 |
| 20260902085043 | 58 | 112 | 1.0 | 6.0 | 0.00 | 0.00 | 0.00 | 83 | 1009.6 |
| 20260902084539 | 58 | 118 | 0.0 | 3.0 | 0.00 | 0.00 | 0.00 | 84 | 1009.6 |
| 20260902084034 | 57 | 184 | 3.0 | 8.0 | 0.00 | 0.00 | 0.00 | 85 | 1009.6 |
| 20260902083524 | 57 | 121 | 3.0 | 8.0 | 0.00 | 0.00 | 0.00 | 88 | 1010.0 |
| 20260902083019 | 56 | 184 | 3.0 | 6.0 | 0.00 | 0.00 | 0.00 | 88 | 1009.6 |
| 20260902082515 | 56 | 101 | 1.0 | 3.0 | 0.00 | 0.00 | 0.00 | 89 | 1010.0 |
| 20260902082011 | 56 | 116 | 2.0 | 4.0 | 0.00 | 0.00 | 0.00 | 89 | 1010.0 |
| 20260902081507 | 56 | 118 | 2.0 | 4.0 | 0.00 | 0.00 | 0.00 | 89 | 1010.0 |
| 20260902081001 | 56 | 164 | 2.0 | 3.0 | 0.00 | 0.00 | 0.00 | 89 | 1010.0 |
| 20260902080457 | 57 | 184 | 4.0 | 6.0 | 0.00 | 0.00 | 0.00 | 89 | 1010.3 |
| 20260902075957 | 57 | 184 | 1.0 | 4.0 | 0.00 | 0.00 | 0.00 | 89 | 1010.0 |
| 20260902075453 | 57 | 162 | 1.0 | 2.0 | 0.00 | 0.00 | 0.00 | 89 | 1010.3 |
| 20260902074949 | 57 | 198 | 2.0 | 3.0 | 0.00 | 0.00 | 0.00 | 89 | 1010.3 |
| 20260902074444 | 57 | 133 | 2.0 | 2.0 | 0.00 | 0.00 | 0.00 | 89 | 1010.3 |
| 20260902073938 | 57 | 159 | 3.0 | 6.0 | 0.00 | 0.00 | 0.00 | 88 | 1010.3 |
| 20260902073434 | 57 | 161 | 2.0 | 3.0 | 0.00 | 0.00 | 0.00 | 88 | 1010.3 |
| 20260902072931 | 57 | 153 | 2.0 | 7.0 | 0.00 | 0.00 | 0.00 | 88 | 1010.3 |
| 20260902072426 | 57 | 155 | 4.0 | 6.0 | 0.00 | 0.00 | 0.00 | 88 | 1010.3 |
| 20260902071922 | 57 | 171 | 2.0 | 4.0 | 0.00 | 0.00 | 0.00 | 88 | 1010.3 |
| 20260902071421 | 57 | 130 | 3.0 | 3.0 | 0.00 | 0.00 | 0.00 | 88 | 1010.3 |
| 20260902070918 | 57 | 137 | 2.0 | 3.0 | 0.00 | 0.00 | 0.00 | 88 | 1010.7 |
| 20260902070414 | 57 | 124 | 0.0 | 4.0 | 0.00 | 0.00 | 0.00 | 88 | 1010.3 |
| 20260902065912 | 57 | 91 | 2.0 | 3.0 | 0.00 | 0.00 | 0.00 | 88 | 1010.7 |
| 20260902065408 | 57 | 134 | 2.0 | 3.0 | 0.00 | 0.00 | 0.00 | 88 | 1010.3 |
| 20260902064903 | 57 | 192 | 2.0 | 4.0 | 0.00 | 0.00 | 0.00 | 88 | 1010.7 |
| 20260902064359 | 57 | 114 | 2.0 | 3.0 | 0.00 | 0.00 | 0.00 | 88 | 1010.7 |
| 20260902063854 | 57 | 168 | 2.0 | 6.0 | 0.00 | 0.00 | 0.00 | 88 | 1010.7 |
| 20260902063348 | 57 | 175 | 6.0 | 7.0 | 0.00 | 0.00 | 0.00 | 88 | 1010.7 |
| 20260902062842 | 57 | 152 | 3.0 | 8.0 | 0.00 | 0.00 | 0.00 | 87 | 1010.7 |
| 20260902062336 | 57 | 120 | 4.0 | 4.0 | 0.00 | 0.00 | 0.00 | 87 | 1010.7 |
| 20260902061831 | 57 | 152 | 2.0 | 4.0 | 0.00 | 0.00 | 0.00 | 87 | 1010.7 |
| 20260902061326 | 57 | 161 | 4.0 | 6.0 | 0.00 | 0.00 | 0.00 | 87 | 1010.7 |
| 20260902060823 | 57 | 99 | 2.0 | 3.0 | 0.00 | 0.00 | 0.00 | 87 | 1010.7 |
| 20260902060318 | 57 | 148 | 1.0 | 2.0 | 0.00 | 0.00 | 0.00 | 86 | 1011.0 |
| 20260902055813 | 58 | 160 | 2.0 | 2.0 | 0.00 | 0.00 | 0.00 | 85 | 1010.7 |
| 20260902055309 | 58 | 168 | 1.0 | 2.0 | 0.00 | 0.00 | 0.00 | 85 | 1010.7 |
| 20260902054804 | 58 | 156 | 2.0 | 2.0 | 0.00 | 0.00 | 0.00 | 84 | 1011.0 |
| 20260902054300 | 59 | 117 | 1.0 | 4.0 | 0.00 | 0.00 | 0.00 | 84 | 1011.0 |
| 20260902053755 | 59 | 124 | 0.0 | 2.0 | 0.00 | 0.00 | 0.00 | 83 | 1011.0 |
| 20260902053254 | 59 | 172 | 3.0 | 3.0 | 0.00 | 0.00 | 0.00 | 82 | 1011.0 |
| 20260902052748 | 60 | 102 | 2.0 | 2.0 | 0.00 | 0.00 | 0.00 | 82 | 1011.3 |
| 20260902052243 | 60 | 156 | 2.0 | 3.0 | 0.00 | 0.00 | 0.00 | 82 | 1011.3 |
| 20260902051738 | 60 | 114 | 1.0 | 3.0 | 0.00 | 0.00 | 0.00 | 82 | 1011.3 |
| 20260902051232 | 59 | 159 | 1.0 | 1.0 | 0.00 | 0.00 | 0.00 | 83 | 1011.3 |
| 20260902050727 | 59 | 159 | 0.0 | 1.0 | 0.00 | 0.00 | 0.00 | 83 | 1011.3 |
| 20260902050223 | 59 | 189 | 0.0 | 2.0 | 0.00 | 0.00 | 0.00 | 84 | 1011.3 |
| 20260902045723 | 59 | 191 | 0.0 | 0.0 | 0.00 | 0.00 | 0.00 | 84 | 1011.3 |
| 20260902045219 | 59 | 191 | 0.0 | 1.0 | 0.00 | 0.00 | 0.00 | 84 | 1011.3 |
| 20260902044714 | 59 | 191 | 0.0 | 0.0 | 0.00 | 0.00 | 0.00 | 83 | 1011.3 |
| 20260902044209 | 59 | 191 | 0.0 | 0.0 | 0.00 | 0.00 | 0.00 | 83 | 1011.3 |
| 20260902043704 | 59 | 191 | 0.0 | 0.0 | 0.00 | 0.00 | 0.00 | 83 | 1011.3 |
| 20260902043200 | 59 | 191 | 0.0 | 1.0 | 0.00 | 0.00 | 0.00 | 82 | 1011.3 |
| 20260902042659 | 59 | 191 | 0.0 | 0.0 | 0.00 | 0.00 | 0.00 | 82 | 1011.3 |
| 20260902042154 | 59 | 191 | 0.0 | 0.0 | 0.00 | 0.00 | 0.00 | 81 | 1011.3 |
| 20260902041654 | 60 | 191 | 0.0 | 1.0 | 0.00 | 0.00 | 0.00 | 81 | 1011.3 |
| 20260902041148 | 60 | 191 | 0.0 | 0.0 | 0.00 | 0.00 | 0.00 | 80 | 1011.3 |
| 20260902040642 | 59 | 191 | 0.0 | 1.0 | 0.00 | 0.00 | 0.00 | 81 | 1011.3 |
| 20260902040138 | 59 | 198 | 0.0 | 0.0 | 0.00 | 0.00 | 0.00 | 82 | 1011.3 |
| 20260902035636 | 59 | 198 | 0.0 | 0.0 | 0.00 | 0.00 | 0.00 | 82 | 1011.3 |
| 20260902035132 | 59 | 198 | 0.0 | 0.0 | 0.00 | 0.00 | 0.00 | 81 | 1011.3 |
| 20260902034631 | 59 | 198 | 0.0 | 0.0 | 0.00 | 0.00 | 0.00 | 81 | 1011.3 |
| 20260902034130 | 60 | 198 | 0.0 | 0.0 | 0.00 | 0.00 | 0.00 | 80 | 1011.3 |
| 20260902033630 | 60 | 198 | 0.0 | 0.0 | 0.00 | 0.00 | 0.00 | 80 | 1011.3 |
| 20260902033125 | 60 | 198 | 0.0 | 0.0 | 0.00 | 0.00 | 0.00 | 80 | 1011.3 |
| 20260902032623 | 61 | 198 | 0.0 | 0.0 | 0.00 | 0.00 | 0.00 | 79 | 1011.3 |
| 20260902032118 | 61 | 198 | 0.0 | 0.0 | 0.00 | 0.00 | 0.00 | 78 | 1011.3 |
| 20260902031613 | 61 | 198 | 0.0 | 0.0 | 0.00 | 0.00 | 0.00 | 78 | 1011.3 |
| 20260902031110 | 62 | 198 | 0.0 | 0.0 | 0.00 | 0.00 | 0.00 | 77 | 1011.3 |
| 20260902030609 | 62 | 198 | 0.0 | 0.0 | 0.00 | 0.00 | 0.00 | 77 | 1011.3 |
| 20260902030104 | 62 | 198 | 0.0 | 0.0 | 0.00 | 0.00 | 0.00 | 77 | 1011.3 |
| 20260902025603 | 62 | 198 | 0.0 | 0.0 | 0.00 | 0.00 | 0.00 | 77 | 1011.3 |
| 20260902025059 | 62 | 198 | 0.0 | 1.0 | 0.00 | 0.00 | 0.00 | 76 | 1011.3 |
| 20260902024554 | 62 | 198 | 0.0 | 0.0 | 0.00 | 0.00 | 0.00 | 76 | 1011.3 |
| 20260902024054 | 62 | 198 | 0.0 | 0.0 | 0.00 | 0.00 | 0.00 | 76 | 1011.3 |
| 20260902023550 | 62 | 198 | 0.0 | 0.0 | 0.00 | 0.00 | 0.00 | 76 | 1011.3 |
| 20260902023045 | 62 | 198 | 0.0 | 0.0 | 0.00 | 0.00 | 0.00 | 76 | 1011.3 |
| 20260902022544 | 62 | 198 | 0.0 | 0.0 | 0.00 | 0.00 | 0.00 | 75 | 1011.3 |
| 20260902022041 | 63 | 198 | 0.0 | 0.0 | 0.00 | 0.00 | 0.00 | 75 | 1011.3 |
| 20260902021536 | 63 | 198 | 0.0 | 0.0 | 0.00 | 0.00 | 0.00 | 75 | 1011.3 |
| 20260902021031 | 63 | 198 | 0.0 | 0.0 | 0.00 | 0.00 | 0.00 | 74 | 1011.3 |
| 20260902020526 | 63 | 198 | 0.0 | 0.0 | 0.00 | 0.00 | 0.00 | 74 | 1011.3 |
| 20260902020022 | 63 | 198 | 0.0 | 0.0 | 0.00 | 0.00 | 0.00 | 74 | 1011.8 |
| 20260902015518 | 63 | 198 | 0.0 | 1.0 | 0.00 | 0.00 | 0.00 | 75 | 1011.3 |
| 20260902015013 | 63 | 198 | 0.0 | 0.0 | 0.00 | 0.00 | 0.00 | 75 | 1011.8 |
| 20260902014510 | 63 | 200 | 0.0 | 1.0 | 0.00 | 0.00 | 0.00 | 75 | 1011.8 |
| 20260902014004 | 63 | 172 | 1.0 | 1.0 | 0.00 | 0.00 | 0.00 | 75 | 1011.8 |
| 20260902013458 | 63 | 94 | 1.0 | 1.0 | 0.00 | 0.00 | 0.00 | 75 | 1011.3 |
| 20260902012953 | 63 | 312 | 1.0 | 2.0 | 0.00 | 0.00 | 0.00 | 75 | 1011.8 |
| 20260902012444 | 63 | 285 | 2.0 | 2.0 | 0.00 | 0.00 | 0.00 | 75 | 1011.8 |
| 20260902011939 | 63 | 95 | 0.0 | 0.0 | 0.00 | 0.00 | 0.00 | 74 | 1011.3 |
| 20260902011435 | 63 | 107 | 0.0 | 1.0 | 0.00 | 0.00 | 0.00 | 74 | 1011.8 |
| 20260902010934 | 63 | 106 | 0.0 | 1.0 | 0.00 | 0.00 | 0.00 | 74 | 1011.8 |
| 20260902010429 | 63 | 289 | 1.0 | 1.0 | 0.00 | 0.00 | 0.00 | 74 | 1011.3 |
| 20260902005928 | 63 | 107 | 0.0 | 1.0 | 0.00 | 0.00 | 0.00 | 74 | 1011.3 |
| 20260902005427 | 63 | 105 | 0.0 | 1.0 | 0.00 | 0.00 | 0.00 | 74 | 1011.8 |
| 20260902004923 | 63 | 132 | 1.0 | 1.0 | 0.00 | 0.00 | 0.00 | 74 | 1011.8 |
| 20260902004422 | 63 | 65 | 2.0 | 3.0 | 0.00 | 0.00 | 0.00 | 74 | 1011.3 |
| 20260902003918 | 63 | 99 | 0.0 | 1.0 | 0.00 | 0.00 | 0.00 | 75 | 1011.8 |
| 20260902003413 | 63 | 102 | 0.0 | 2.0 | 0.00 | 0.00 | 0.00 | 75 | 1011.8 |
| 20260902002908 | 63 | 196 | 0.0 | 1.0 | 0.00 | 0.00 | 0.00 | 75 | 1011.8 |
| 20260902002403 | 63 | 90 | 1.0 | 1.0 | 0.00 | 0.00 | 0.00 | 75 | 1011.3 |
| 20260902001858 | 63 | 286 | 2.0 | 2.0 | 0.00 | 0.00 | 0.00 | 74 | 1011.8 |
| 20260902001353 | 63 | 99 | 0.0 | 0.0 | 0.00 | 0.00 | 0.00 | 75 | 1011.8 |
| 20260902000847 | 63 | 95 | 0.0 | 1.0 | 0.00 | 0.00 | 0.00 | 74 | 1011.8 |
| 20260902000344 | 63 | 73 | 0.0 | 1.0 | 0.00 | 0.00 | 0.00 | 74 | 1011.8 |
| 20260901235837 | 62 | 84 | 0.0 | 1.0 | 0.00 | 0.00 | 0.00 | 75 | 1011.8 |
| 20260901235336 | 62 | 65 | 1.0 | 1.0 | 0.00 | 0.00 | 0.00 | 75 | 1011.8 |
| 20260901234832 | 62 | 94 | 0.0 | 1.0 | 0.00 | 0.00 | 0.00 | 75 | 1011.8 |
| 20260901234326 | 62 | 110 | 0.0 | 1.0 | 0.00 | 0.00 | 0.00 | 75 | 1011.8 |
| 20260901233821 | 63 | 110 | 0.0 | 1.0 | 0.00 | 0.00 | 0.00 | 75 | 1011.8 |
| 20260901233317 | 63 | 288 | 1.0 | 1.0 | 0.00 | 0.00 | 0.00 | 75 | 1011.8 |
| 20260901232812 | 63 | 82 | 1.0 | 1.0 | 0.00 | 0.00 | 0.00 | 74 | 1011.8 |
| 20260901232301 | 63 | 115 | 0.0 | 3.0 | 0.00 | 0.00 | 0.00 | 75 | 1011.8 |
| 20260901231757 | 63 | 58 | 1.0 | 2.0 | 0.00 | 0.00 | 0.00 | 74 | 1011.8 |
| 20260901231248 | 64 | 104 | 0.0 | 4.0 | 0.00 | 0.00 | 0.00 | 74 | 1011.8 |
| 20260901230744 | 64 | 309 | 2.0 | 4.0 | 0.00 | 0.00 | 0.00 | 74 | 1011.3 |
| 20260901230243 | 64 | 103 | 0.0 | 2.0 | 0.00 | 0.00 | 0.00 | 74 | 1011.3 |
| 20260901225738 | 65 | 60 | 0.0 | 2.0 | 0.00 | 0.00 | 0.00 | 73 | 1011.3 |
| 20260901225233 | 64 | 110 | 0.0 | 1.0 | 0.00 | 0.00 | 0.00 | 74 | 1011.3 |
| 20260901224729 | 64 | 82 | 0.0 | 2.0 | 0.00 | 0.00 | 0.00 | 73 | 1011.3 |
| 20260901224225 | 64 | 155 | 1.0 | 2.0 | 0.00 | 0.00 | 0.00 | 73 | 1011.8 |
| 20260901223721 | 64 | 95 | 0.0 | 1.0 | 0.00 | 0.00 | 0.00 | 74 | 1011.8 |
| 20260901223215 | 64 | 87 | 1.0 | 1.0 | 0.00 | 0.00 | 0.00 | 74 | 1011.3 |
| 20260901222711 | 63 | 118 | 0.0 | 2.0 | 0.00 | 0.00 | 0.00 | 75 | 1011.3 |
| 20260901222208 | 63 | 315 | 1.0 | 4.0 | 0.00 | 0.00 | 0.00 | 75 | 1011.8 |
| 20260901221703 | 62 | 109 | 0.0 | 2.0 | 0.00 | 0.00 | 0.00 | 76 | 1011.8 |
| 20260901221159 | 63 | 79 | 1.0 | 4.0 | 0.00 | 0.00 | 0.00 | 76 | 1011.8 |
| 20260901220658 | 64 | 86 | 2.0 | 2.0 | 0.00 | 0.00 | 0.00 | 73 | 1011.8 |
| 20260901220157 | 64 | 109 | 0.0 | 4.0 | 0.00 | 0.00 | 0.00 | 74 | 1011.8 |
| 20260901215655 | 66 | 302 | 3.0 | 4.0 | 0.00 | 0.00 | 0.00 | 72 | 1011.8 |
| 20260901215150 | 66 | 106 | 0.0 | 1.0 | 0.00 | 0.00 | 0.00 | 72 | 1011.8 |
| 20260901214648 | 66 | 96 | 1.0 | 1.0 | 0.00 | 0.00 | 0.00 | 72 | 1012.1 |
| 20260901214143 | 66 | 182 | 1.0 | 2.0 | 0.00 | 0.00 | 0.00 | 73 | 1011.8 |
| 20260901213642 | 67 | 111 | 1.0 | 3.0 | 0.00 | 0.00 | 0.00 | 73 | 1011.8 |
| 20260901213137 | 67 | 106 | 0.0 | 1.0 | 0.00 | 0.00 | 0.00 | 72 | 1011.8 |
| 20260901212637 | 67 | 131 | 0.0 | 1.0 | 0.00 | 0.00 | 0.00 | 72 | 1012.1 |
| 20260901212133 | 67 | 149 | 3.0 | 3.0 | 0.00 | 0.00 | 0.00 | 72 | 1012.1 |
| 20260901211628 | 67 | 118 | 1.0 | 3.0 | 0.00 | 0.00 | 0.00 | 72 | 1012.1 |
| 20260901211124 | 67 | 110 | 0.0 | 3.0 | 0.00 | 0.00 | 0.00 | 73 | 1012.1 |
| 20260901210620 | 68 | 105 | 1.0 | 1.0 | 0.00 | 0.00 | 0.00 | 70 | 1012.1 |
| 20260901210116 | 67 | 197 | 5.0 | 7.0 | 0.00 | 0.00 | 0.00 | 72 | 1012.1 |
| 20260901205611 | 67 | 84 | 1.0 | 3.0 | 0.00 | 0.00 | 0.00 | 73 | 1012.1 |
| 20260901205105 | 67 | 93 | 1.0 | 6.0 | 0.00 | 0.00 | 0.00 | 73 | 1012.1 |
| 20260901204602 | 68 | 187 | 3.0 | 4.0 | 0.00 | 0.00 | 0.00 | 71 | 1012.1 |
| 20260901204056 | 68 | 157 | 2.0 | 4.0 | 0.00 | 0.00 | 0.00 | 70 | 1012.1 |
| 20260901203550 | 68 | 121 | 2.0 | 2.0 | 0.00 | 0.00 | 0.00 | 70 | 1012.1 |
| 20260901203046 | 68 | 99 | 0.0 | 2.0 | 0.00 | 0.00 | 0.00 | 72 | 1012.1 |
| 20260901202545 | 67 | 130 | 2.0 | 4.0 | 0.00 | 0.00 | 0.00 | 73 | 1012.1 |
| 20260901202042 | 68 | 129 | 1.0 | 3.0 | 0.00 | 0.00 | 0.00 | 71 | 1012.1 |
| 20260901201537 | 66 | 135 | 2.0 | 3.0 | 0.00 | 0.00 | 0.00 | 74 | 1012.1 |
| 20260901201036 | 67 | 109 | 2.0 | 6.0 | 0.00 | 0.00 | 0.00 | 72 | 1012.1 |
| 20260901200536 | 68 | 113 | 2.0 | 4.0 | 0.00 | 0.00 | 0.00 | 71 | 1012.1 |
| 20260901200031 | 68 | 90 | 2.0 | 3.0 | 0.00 | 0.00 | 0.00 | 71 | 1012.1 |
| 20260901195528 | 69 | 122 | 1.0 | 2.0 | 0.00 | 0.00 | 0.00 | 70 | 1011.8 |
| 20260901195023 | 68 | 81 | 1.0 | 3.0 | 0.00 | 0.00 | 0.00 | 72 | 1012.1 |
| 20260901194518 | 68 | 167 | 3.0 | 4.0 | 0.00 | 0.00 | 0.00 | 72 | 1012.1 |
| 20260901194014 | 68 | 108 | 2.0 | 4.0 | 0.00 | 0.00 | 0.00 | 70 | 1012.1 |
| 20260901193513 | 68 | 91 | 1.0 | 2.0 | 0.00 | 0.00 | 0.00 | 71 | 1012.1 |
| 20260901193014 | 67 | 91 | 1.0 | 2.0 | 0.00 | 0.00 | 0.00 | 73 | 1012.1 |
| 20260901192509 | 67 | 108 | 1.0 | 8.0 | 0.00 | 0.00 | 0.00 | 72 | 1012.1 |
| 20260901192005 | 67 | 103 | 1.0 | 2.0 | 0.00 | 0.00 | 0.00 | 72 | 1012.1 |
| 20260901191500 | 67 | 81 | 2.0 | 3.0 | 0.00 | 0.00 | 0.00 | 72 | 1012.1 |
| 20260901190955 | 67 | 96 | 1.0 | 8.0 | 0.00 | 0.00 | 0.00 | 74 | 1011.8 |
| 20260901190451 | 67 | 108 | 2.0 | 2.0 | 0.00 | 0.00 | 0.00 | 72 | 1012.1 |
| 20260901185949 | 66 | 99 | 1.0 | 2.0 | 0.00 | 0.00 | 0.00 | 71 | 1012.1 |
| 20260901185444 | 65 | 116 | 1.0 | 1.0 | 0.00 | 0.00 | 0.00 | 73 | 1012.1 |
| 20260901184943 | 66 | 61 | 1.0 | 2.0 | 0.00 | 0.00 | 0.00 | 73 | 1012.1 |
| 20260901184439 | 65 | 74 | 1.0 | 3.0 | 0.00 | 0.00 | 0.00 | 72 | 1012.1 |
| 20260901183934 | 63 | 94 | 1.0 | 2.0 | 0.00 | 0.00 | 0.00 | 75 | 1012.1 |
| 20260901183433 | 63 | 99 | 0.0 | 4.0 | 0.00 | 0.00 | 0.00 | 76 | 1012.1 |
| 20260901182929 | 64 | 38 | 2.0 | 2.0 | 0.00 | 0.00 | 0.00 | 75 | 1012.1 |
| 20260901182424 | 64 | 100 | 0.0 | 2.0 | 0.00 | 0.00 | 0.00 | 74 | 1012.1 |
| 20260901181914 | 64 | 102 | 0.0 | 1.0 | 0.00 | 0.00 | 0.00 | 75 | 1012.1 |
| 20260901181408 | 62 | 108 | 0.0 | 1.0 | 0.00 | 0.00 | 0.00 | 77 | 1012.1 |
| 20260901180907 | 62 | 93 | 1.0 | 2.0 | 0.00 | 0.00 | 0.00 | 78 | 1012.1 |
| 20260901180401 | 61 | 18 | 1.0 | 2.0 | 0.00 | 0.00 | 0.00 | 78 | 1012.1 |
| 20260901175900 | 61 | 136 | 0.0 | 2.0 | 0.00 | 0.00 | 0.00 | 78 | 1012.1 |
| 20260901175354 | 61 | 105 | 0.0 | 1.0 | 0.00 | 0.00 | 0.00 | 78 | 1012.1 |
| 20260901174849 | 61 | 110 | 0.0 | 1.0 | 0.00 | 0.00 | 0.00 | 79 | 1012.1 |
| 20260901174345 | 61 | 116 | 1.0 | 2.0 | 0.00 | 0.00 | 0.00 | 79 | 1012.1 |
| 20260901173841 | 61 | 116 | 0.0 | 0.0 | 0.00 | 0.00 | 0.00 | 79 | 1012.1 |
| 20260901173335 | 61 | 87 | 0.0 | 2.0 | 0.00 | 0.00 | 0.00 | 79 | 1012.1 |
| 20260901172832 | 61 | 172 | 0.0 | 1.0 | 0.00 | 0.00 | 0.00 | 79 | 1011.8 |
| 20260901172331 | 61 | 121 | 0.0 | 2.0 | 0.00 | 0.00 | 0.00 | 80 | 1011.8 |
| 20260901171829 | 62 | 95 | 2.0 | 3.0 | 0.00 | 0.00 | 0.00 | 82 | 1011.8 |
| 20260901171329 | 61 | 110 | 3.0 | 6.0 | 0.00 | 0.00 | 0.00 | 83 | 1011.8 |
| 20260901170828 | 60 | 102 | 1.0 | 4.0 | 0.00 | 0.00 | 0.00 | 85 | 1011.8 |
| 20260901170322 | 60 | 163 | 7.0 | 8.0 | 0.00 | 0.00 | 0.00 | 84 | 1011.8 |
| 20260901165816 | 60 | 189 | 3.0 | 6.0 | 0.00 | 0.00 | 0.00 | 84 | 1011.8 |
| 20260901165310 | 60 | 177 | 1.0 | 4.0 | 0.00 | 0.00 | 0.00 | 85 | 1011.3 |
| 20260901164807 | 60 | 179 | 2.0 | 4.0 | 0.00 | 0.00 | 0.00 | 86 | 1011.8 |
| 20260901164302 | 59 | 218 | 5.0 | 7.0 | 0.00 | 0.00 | 0.00 | 86 | 1011.8 |
| 20260901163757 | 59 | 169 | 1.0 | 4.0 | 0.00 | 0.00 | 0.00 | 88 | 1011.8 |
| 20260901163256 | 58 | 207 | 3.0 | 6.0 | 0.00 | 0.00 | 0.00 | 89 | 1011.8 |
| 20260901162751 | 58 | 180 | 6.0 | 7.0 | 0.00 | 0.00 | 0.00 | 89 | 1011.8 |
| 20260901162251 | 57 | 159 | 2.0 | 4.0 | 0.00 | 0.00 | 0.00 | 90 | 1011.8 |
| 20260901161749 | 57 | 112 | 3.0 | 4.0 | 0.00 | 0.00 | 0.00 | 90 | 1011.8 |
| 20260901161244 | 57 | 150 | 3.0 | 4.0 | 0.00 | 0.00 | 0.00 | 90 | 1011.8 |
| 20260901160740 | 57 | 171 | 3.0 | 8.0 | 0.00 | 0.00 | 0.00 | 91 | 1011.8 |
| 20260901160236 | 57 | 222 | 4.0 | 10.0 | 0.00 | 0.00 | 0.00 | 91 | 1011.8 |
| 20260901155735 | 57 | 170 | 2.0 | 6.0 | 0.00 | 0.00 | 0.00 | 91 | 1011.8 |
| 20260901155231 | 56 | 149 | 2.0 | 8.0 | 0.00 | 0.00 | 0.00 | 91 | 1011.8 |
| 20260901154726 | 56 | 163 | 5.0 | 7.0 | 0.00 | 0.00 | 0.00 | 91 | 1011.3 |
| 20260901154221 | 56 | 155 | 4.0 | 6.0 | 0.00 | 0.00 | 0.00 | 91 | 1011.8 |
| 20260901153716 | 56 | 98 | 1.0 | 6.0 | 0.00 | 0.00 | 0.00 | 91 | 1011.8 |
| 20260901153215 | 56 | 157 | 1.0 | 4.0 | 0.00 | 0.00 | 0.00 | 91 | 1011.8 |
| 20260901152709 | 56 | 170 | 2.0 | 7.0 | 0.00 | 0.00 | 0.00 | 91 | 1011.8 |
| 20260901152203 | 56 | 116 | 1.0 | 8.0 | 0.00 | 0.00 | 0.00 | 91 | 1011.3 |
| 20260901151659 | 56 | 180 | 1.0 | 7.0 | 0.00 | 0.00 | 0.00 | 91 | 1011.8 |
| 20260901151158 | 56 | 140 | 3.0 | 8.0 | 0.00 | 0.00 | 0.00 | 91 | 1011.8 |
| 20260901150658 | 56 | 184 | 5.0 | 6.0 | 0.00 | 0.00 | 0.00 | 91 | 1011.3 |
| 20260901150156 | 56 | 177 | 5.0 | 7.0 | 0.00 | 0.00 | 0.00 | 91 | 1011.3 |
| 20260901145654 | 56 | 98 | 3.0 | 8.0 | 0.00 | 0.00 | 0.00 | 91 | 1011.3 |
| 20260901145153 | 55 | 166 | 4.0 | 7.0 | 0.00 | 0.00 | 0.00 | 91 | 1011.3 |
| 20260901144649 | 55 | 120 | 5.0 | 9.0 | 0.00 | 0.00 | 0.00 | 91 | 1011.3 |
| 20260901144143 | 55 | 150 | 4.0 | 9.0 | 0.00 | 0.00 | 0.00 | 91 | 1011.3 |
| 20260901143639 | 54 | 91 | 3.0 | 6.0 | 0.00 | 0.00 | 0.00 | 91 | 1011.3 |
| 20260901143135 | 54 | 164 | 5.0 | 6.0 | 0.00 | 0.00 | 0.00 | 91 | 1011.3 |
| 20260901142631 | 54 | 158 | 2.0 | 7.0 | 0.00 | 0.00 | 0.00 | 91 | 1011.3 |
| 20260901142130 | 54 | 121 | 3.0 | 4.0 | 0.00 | 0.00 | 0.00 | 90 | 1011.3 |
| 20260901141626 | 54 | 112 | 4.0 | 6.0 | 0.00 | 0.00 | 0.00 | 90 | 1011.3 |
| 20260901141126 | 54 | 128 | 3.0 | 4.0 | 0.00 | 0.00 | 0.00 | 90 | 1011.3 |
| 20260901140625 | 54 | 179 | 2.0 | 4.0 | 0.00 | 0.00 | 0.00 | 90 | 1011.3 |
| 20260901140124 | 54 | 122 | 1.0 | 2.0 | 0.00 | 0.00 | 0.00 | 90 | 1011.3 |
| 20260901135624 | 54 | 127 | 2.0 | 3.0 | 0.00 | 0.00 | 0.00 | 90 | 1011.3 |
| 20260901135119 | 54 | 119 | 1.0 | 2.0 | 0.00 | 0.00 | 0.00 | 90 | 1011.3 |
| 20260901134615 | 54 | 137 | 1.0 | 2.0 | 0.00 | 0.00 | 0.00 | 91 | 1011.3 |
| 20260901134110 | 53 | 162 | 2.0 | 3.0 | 0.00 | 0.00 | 0.00 | 91 | 1011.3 |
| 20260901133609 | 53 | 148 | 1.0 | 2.0 | 0.00 | 0.00 | 0.00 | 91 | 1011.3 |
| 20260901133107 | 53 | 172 | 2.0 | 3.0 | 0.00 | 0.00 | 0.00 | 91 | 1011.3 |
| 20260901132602 | 53 | 136 | 2.0 | 3.0 | 0.00 | 0.00 | 0.00 | 91 | 1011.0 |
| 20260901132056 | 53 | 129 | 1.0 | 1.0 | 0.00 | 0.00 | 0.00 | 91 | 1011.3 |
| 20260901131550 | 53 | 149 | 1.0 | 2.0 | 0.00 | 0.00 | 0.00 | 91 | 1011.0 |
| 20260901131046 | 53 | 123 | 1.0 | 2.0 | 0.00 | 0.00 | 0.00 | 91 | 1011.3 |
| 20260901130545 | 53 | 143 | 1.0 | 2.0 | 0.00 | 0.00 | 0.00 | 92 | 1011.0 |
| 20260901130044 | 53 | 130 | 0.0 | 1.0 | 0.00 | 0.00 | 0.00 | 92 | 1011.0 |
| 20260901125542 | 52 | 126 | 0.0 | 0.0 | 0.00 | 0.00 | 0.00 | 92 | 1011.0 |
| 20260901125038 | 52 | 121 | 0.0 | 0.0 | 0.00 | 0.00 | 0.00 | 92 | 1011.0 |
| 20260901124538 | 52 | 104 | 0.0 | 0.0 | 0.00 | 0.00 | 0.00 | 92 | 1011.0 |
| 20260901124033 | 53 | 104 | 0.0 | 0.0 | 0.00 | 0.00 | 0.00 | 92 | 1011.3 |
| 20260901123528 | 53 | 120 | 0.0 | 1.0 | 0.00 | 0.00 | 0.00 | 92 | 1011.0 |
| 20260901123027 | 52 | 123 | 0.0 | 1.0 | 0.00 | 0.00 | 0.00 | 93 | 1011.0 |
| 20260901122526 | 52 | 115 | 0.0 | 0.0 | 0.00 | 0.00 | 0.00 | 93 | 1011.0 |
| 20260901122020 | 52 | 115 | 0.0 | 0.0 | 0.00 | 0.00 | 0.00 | 93 | 1011.0 |
| 20260901121514 | 52 | 111 | 0.0 | 0.0 | 0.00 | 0.00 | 0.00 | 92 | 1011.0 |
| 20260901121009 | 53 | 104 | 0.0 | 0.0 | 0.00 | 0.00 | 0.00 | 93 | 1011.3 |
| 20260901120503 | 53 | 114 | 0.0 | 1.0 | 0.00 | 0.00 | 0.00 | 93 | 1011.0 |
| 20260901115959 | 53 | 117 | 1.0 | 1.0 | 0.00 | 0.00 | 0.00 | 93 | 1011.0 |
| 20260901115454 | 52 | 119 | 0.0 | 0.0 | 0.00 | 0.00 | 0.00 | 93 | 1011.0 |
| 20260901114951 | 51 | 112 | 0.0 | 0.0 | 0.00 | 0.00 | 0.00 | 93 | 1011.0 |
| 20260901114446 | 52 | 112 | 0.0 | 0.0 | 0.00 | 0.00 | 0.00 | 93 | 1011.0 |
| 20260901113945 | 52 | 108 | 0.0 | 0.0 | 0.00 | 0.00 | 0.00 | 93 | 1011.0 |
| 20260901113444 | 52 | 117 | 0.0 | 0.0 | 0.00 | 0.00 | 0.00 | 93 | 1011.0 |
| 20260901112940 | 52 | 117 | 0.0 | 0.0 | 0.00 | 0.00 | 0.00 | 93 | 1011.3 |
| 20260901112435 | 51 | 109 | 0.0 | 0.0 | 0.00 | 0.00 | 0.00 | 92 | 1011.0 |
| 20260901111930 | 51 | 109 | 0.0 | 0.0 | 0.00 | 0.00 | 0.00 | 92 | 1011.3 |
| 20260901111429 | 51 | 110 | 0.0 | 0.0 | 0.00 | 0.00 | 0.00 | 92 | 1011.3 |
| 20260901110927 | 51 | 110 | 0.0 | 0.0 | 0.00 | 0.00 | 0.00 | 92 | 1011.3 |
| 20260901110423 | 51 | 109 | 0.0 | 0.0 | 0.00 | 0.00 | 0.00 | 92 | 1011.3 |
| 20260901105919 | 52 | 109 | 0.0 | 0.0 | 0.00 | 0.00 | 0.00 | 92 | 1011.3 |
| 20260901105414 | 52 | 109 | 0.0 | 0.0 | 0.00 | 0.00 | 0.00 | 92 | 1011.3 |
| 20260901104910 | 51 | 110 | 0.0 | 0.0 | 0.00 | 0.00 | 0.00 | 92 | 1011.0 |
| 20260901104405 | 51 | 110 | 0.0 | 0.0 | 0.00 | 0.00 | 0.00 | 92 | 1011.3 |
| 20260901103901 | 51 | 109 | 0.0 | 0.0 | 0.00 | 0.00 | 0.00 | 92 | 1011.3 |
| 20260901103400 | 51 | 109 | 0.0 | 0.0 | 0.00 | 0.00 | 0.00 | 91 | 1011.3 |
| 20260901102855 | 51 | 109 | 0.0 | 0.0 | 0.00 | 0.00 | 0.00 | 91 | 1011.0 |